Year,Month,Day,Hour,Minute,Value (Times are PST for temperature in C)
2019,06,30,00,00,11.10
2019,06,30,00,01,11.10
2019,06,30,00,02,11.10
2019,06,30,00,03,11.10
2019,06,30,00,04,11.00
2019,06,30,00,05,11.00
2019,06,30,00,06,11.00
2019,06,30,00,07,11.00
2019,06,30,00,08,11.00
2019,06,30,00,09,11.00
2019,06,30,00,10,11.00
2019,06,30,00,11,11.00
2019,06,30,00,12,11.00
2019,06,30,00,13,11.00
2019,06,30,00,14,11.00
2019,06,30,00,15,11.00
2019,06,30,00,16,11.00
2019,06,30,00,17,11.00
2019,06,30,00,18,11.00
2019,06,30,00,19,11.00
2019,06,30,00,20,11.00
2019,06,30,00,21,11.00
2019,06,30,00,22,10.90
2019,06,30,00,23,10.90
2019,06,30,00,24,10.90
2019,06,30,00,25,10.90
2019,06,30,00,26,10.90
2019,06,30,00,27,10.90
2019,06,30,00,28,10.90
2019,06,30,00,29,10.90
2019,06,30,00,30,10.90
2019,06,30,00,31,10.90
2019,06,30,00,32,10.90
2019,06,30,00,33,10.90
2019,06,30,00,34,10.90
2019,06,30,00,35,10.90
2019,06,30,00,36,10.90
2019,06,30,00,37,10.90
2019,06,30,00,38,10.80
2019,06,30,00,39,10.80
2019,06,30,00,40,10.80
2019,06,30,00,41,10.80
2019,06,30,00,42,10.80
2019,06,30,00,43,10.80
2019,06,30,00,44,10.80
2019,06,30,00,45,10.80
2019,06,30,00,46,10.80
2019,06,30,00,47,10.80
2019,06,30,00,48,10.80
2019,06,30,00,49,10.70
2019,06,30,00,50,10.70
2019,06,30,00,51,10.70
2019,06,30,00,52,10.70
2019,06,30,00,53,10.70
2019,06,30,00,54,10.70
2019,06,30,00,55,10.70
2019,06,30,00,56,10.70
2019,06,30,00,57,10.70
2019,06,30,00,58,10.70
2019,06,30,00,59,10.70
2019,06,30,01,00,10.70
2019,06,30,01,01,10.70
2019,06,30,01,02,10.70
2019,06,30,01,03,10.70
2019,06,30,01,04,10.70
2019,06,30,01,05,10.70
2019,06,30,01,06,10.70
2019,06,30,01,07,10.70
2019,06,30,01,08,10.70
2019,06,30,01,09,10.80
2019,06,30,01,10,10.80
2019,06,30,01,11,10.80
2019,06,30,01,12,10.80
2019,06,30,01,13,10.80
2019,06,30,01,14,10.80
2019,06,30,01,15,10.80
2019,06,30,01,16,10.80
2019,06,30,01,17,10.80
2019,06,30,01,18,10.80
2019,06,30,01,19,10.80
2019,06,30,01,20,10.80
2019,06,30,01,21,10.90
2019,06,30,01,22,10.90
2019,06,30,01,23,10.90
2019,06,30,01,24,10.90
2019,06,30,01,25,10.90
2019,06,30,01,26,10.90
2019,06,30,01,27,10.90
2019,06,30,01,28,10.90
2019,06,30,01,29,10.90
2019,06,30,01,30,10.90
2019,06,30,01,31,11.00
2019,06,30,01,32,11.00
2019,06,30,01,33,11.00
2019,06,30,01,34,11.00
2019,06,30,01,35,11.00
2019,06,30,01,36,11.00
2019,06,30,01,37,11.00
2019,06,30,01,38,11.00
2019,06,30,01,39,11.10
2019,06,30,01,40,11.10
2019,06,30,01,41,11.10
2019,06,30,01,42,11.10
2019,06,30,01,43,11.10
2019,06,30,01,44,11.10
2019,06,30,01,45,11.20
2019,06,30,01,46,11.20
2019,06,30,01,47,11.20
2019,06,30,01,48,11.20
2019,06,30,01,49,11.20
2019,06,30,01,50,11.30
2019,06,30,01,51,11.30
2019,06,30,01,52,11.30
2019,06,30,01,53,11.30
2019,06,30,01,54,11.30
2019,06,30,01,55,11.40
2019,06,30,01,56,11.40
2019,06,30,01,57,11.40
2019,06,30,01,58,11.40
2019,06,30,01,59,11.50
2019,06,30,02,00,11.50
2019,06,30,02,01,11.50
2019,06,30,02,02,11.50
2019,06,30,02,03,11.50
2019,06,30,02,04,11.60
2019,06,30,02,05,11.60
2019,06,30,02,06,11.60
2019,06,30,02,07,11.60
2019,06,30,02,08,11.60
2019,06,30,02,09,11.60
2019,06,30,02,10,11.60
2019,06,30,02,11,11.60
2019,06,30,02,12,11.60
2019,06,30,02,13,11.60
2019,06,30,02,14,11.60
2019,06,30,02,15,11.60
2019,06,30,02,16,11.60
2019,06,30,02,17,11.60
2019,06,30,02,18,11.60
2019,06,30,02,19,11.60
2019,06,30,02,20,11.60
2019,06,30,02,21,11.60
2019,06,30,02,22,11.60
2019,06,30,02,23,11.60
2019,06,30,02,24,11.60
2019,06,30,02,25,11.60
2019,06,30,02,26,11.60
2019,06,30,02,27,11.60
2019,06,30,02,28,11.60
2019,06,30,02,29,11.70
2019,06,30,02,30,11.70
2019,06,30,02,31,11.70
2019,06,30,02,32,11.70
2019,06,30,02,33,11.70
2019,06,30,02,34,11.70
2019,06,30,02,35,11.70
2019,06,30,02,36,11.80
2019,06,30,02,37,11.80
2019,06,30,02,38,11.80
2019,06,30,02,39,11.80
2019,06,30,02,40,11.80
2019,06,30,02,41,11.80
2019,06,30,02,42,11.80
2019,06,30,02,43,11.80
2019,06,30,02,44,11.80
2019,06,30,02,45,11.80
2019,06,30,02,46,11.80
2019,06,30,02,47,11.80
2019,06,30,02,48,11.80
2019,06,30,02,49,11.80
2019,06,30,02,50,11.80
2019,06,30,02,51,11.80
2019,06,30,02,52,11.80
2019,06,30,02,53,11.80
2019,06,30,02,54,11.80
2019,06,30,02,55,11.70
2019,06,30,02,56,11.70
2019,06,30,02,57,11.70
2019,06,30,02,58,11.70
2019,06,30,02,59,11.70
2019,06,30,03,00,11.70
2019,06,30,03,01,11.70
2019,06,30,03,02,11.70
2019,06,30,03,03,11.70
2019,06,30,03,04,11.70
2019,06,30,03,05,11.70
2019,06,30,03,06,11.70
2019,06,30,03,07,11.70
2019,06,30,03,08,11.70
2019,06,30,03,09,11.70
2019,06,30,03,10,11.70
2019,06,30,03,11,11.70
2019,06,30,03,12,11.70
2019,06,30,03,13,11.70
2019,06,30,03,14,11.70
2019,06,30,03,15,11.70
2019,06,30,03,16,11.70
2019,06,30,03,17,11.70
2019,06,30,03,18,11.70
2019,06,30,03,19,11.70
2019,06,30,03,20,11.70
2019,06,30,03,21,11.70
2019,06,30,03,22,11.70
2019,06,30,03,23,11.70
2019,06,30,03,24,11.70
2019,06,30,03,25,11.70
2019,06,30,03,26,11.70
2019,06,30,03,27,11.60
2019,06,30,03,28,11.60
2019,06,30,03,29,11.60
2019,06,30,03,30,11.60
2019,06,30,03,31,11.60
2019,06,30,03,32,11.60
2019,06,30,03,33,11.60
2019,06,30,03,34,11.60
2019,06,30,03,35,11.60
2019,06,30,03,36,11.60
2019,06,30,03,37,11.60
2019,06,30,03,38,11.60
2019,06,30,03,39,11.60
2019,06,30,03,40,11.60
2019,06,30,03,41,11.60
2019,06,30,03,42,11.60
2019,06,30,03,43,11.60
2019,06,30,03,44,11.60
2019,06,30,03,45,11.70
2019,06,30,03,46,11.70
2019,06,30,03,47,11.70
2019,06,30,03,48,11.70
2019,06,30,03,49,11.70
2019,06,30,03,50,11.60
2019,06,30,03,51,11.60
2019,06,30,03,52,11.60
2019,06,30,03,53,11.60
2019,06,30,03,54,11.60
2019,06,30,03,55,11.60
2019,06,30,03,56,11.60
2019,06,30,03,57,11.60
2019,06,30,03,58,11.60
2019,06,30,03,59,11.60
2019,06,30,04,00,11.60
2019,06,30,04,01,11.60
2019,06,30,04,02,11.60
2019,06,30,04,03,11.60
2019,06,30,04,04,11.60
2019,06,30,04,05,11.60
2019,06,30,04,06,11.60
2019,06,30,04,07,11.60
2019,06,30,04,08,11.60
2019,06,30,04,09,11.60
2019,06,30,04,10,11.50
2019,06,30,04,11,11.50
2019,06,30,04,12,11.50
2019,06,30,04,13,11.50
2019,06,30,04,14,11.50
2019,06,30,04,15,11.60
2019,06,30,04,16,11.50
2019,06,30,04,17,11.60
2019,06,30,04,18,11.60
2019,06,30,04,19,11.60
2019,06,30,04,20,11.60
2019,06,30,04,21,11.60
2019,06,30,04,22,11.60
2019,06,30,04,23,11.60
2019,06,30,04,24,11.60
2019,06,30,04,25,11.60
2019,06,30,04,26,11.60
2019,06,30,04,27,11.60
2019,06,30,04,28,11.60
2019,06,30,04,29,11.60
2019,06,30,04,30,11.60
2019,06,30,04,31,11.60
2019,06,30,04,32,11.60
2019,06,30,04,33,11.60
2019,06,30,04,34,11.60
2019,06,30,04,35,11.60
2019,06,30,04,36,11.60
2019,06,30,04,37,11.60
2019,06,30,04,38,11.60
2019,06,30,04,39,11.60
2019,06,30,04,40,11.60
2019,06,30,04,41,11.60
2019,06,30,04,42,11.60
2019,06,30,04,43,11.50
2019,06,30,04,44,11.50
2019,06,30,04,45,11.50
2019,06,30,04,46,11.50
2019,06,30,04,47,11.50
2019,06,30,04,48,11.50
2019,06,30,04,49,11.40
2019,06,30,04,50,11.40
2019,06,30,04,51,11.40
2019,06,30,04,52,11.40
2019,06,30,04,53,11.40
2019,06,30,04,54,11.40
2019,06,30,04,55,11.40
2019,06,30,04,56,11.40
2019,06,30,04,57,11.40
2019,06,30,04,58,11.30
2019,06,30,04,59,11.30
2019,06,30,05,00,11.30
2019,06,30,05,01,11.30
2019,06,30,05,02,11.30
2019,06,30,05,03,11.30
2019,06,30,05,04,11.30
2019,06,30,05,05,11.30
2019,06,30,05,06,11.30
2019,06,30,05,07,11.30
2019,06,30,05,08,11.30
2019,06,30,05,09,11.30
2019,06,30,05,10,11.30
2019,06,30,05,11,11.30
2019,06,30,05,12,11.20
2019,06,30,05,13,11.20
2019,06,30,05,14,11.20
2019,06,30,05,15,11.20
2019,06,30,05,16,11.20
2019,06,30,05,17,11.20
2019,06,30,05,18,11.20
2019,06,30,05,19,11.20
2019,06,30,05,20,11.20
2019,06,30,05,21,11.20
2019,06,30,05,22,11.10
2019,06,30,05,23,11.10
2019,06,30,05,24,11.10
2019,06,30,05,25,11.10
2019,06,30,05,26,11.10
2019,06,30,05,27,11.10
2019,06,30,05,28,11.10
2019,06,30,05,29,11.10
2019,06,30,05,30,11.10
2019,06,30,05,31,11.00
2019,06,30,05,32,11.00
2019,06,30,05,33,11.00
2019,06,30,05,34,11.00
2019,06,30,05,35,11.00
2019,06,30,05,36,11.00
2019,06,30,05,37,10.90
2019,06,30,05,38,10.90
2019,06,30,05,39,10.90
2019,06,30,05,40,10.90
2019,06,30,05,41,10.90
2019,06,30,05,42,10.90
2019,06,30,05,43,10.90
2019,06,30,05,44,11.00
2019,06,30,05,45,11.00
2019,06,30,05,46,11.00
2019,06,30,05,47,11.00
2019,06,30,05,48,11.10
2019,06,30,05,49,11.10
2019,06,30,05,50,11.10
2019,06,30,05,51,11.10
2019,06,30,05,52,11.10
2019,06,30,05,53,11.20
2019,06,30,05,54,11.20
2019,06,30,05,55,11.20
2019,06,30,05,56,11.20
2019,06,30,05,57,11.20
2019,06,30,05,58,11.20
2019,06,30,05,59,11.20
2019,06,30,06,00,11.20
2019,06,30,06,01,11.20
2019,06,30,06,02,11.20
2019,06,30,06,03,11.20
2019,06,30,06,04,11.30
2019,06,30,06,05,11.30
2019,06,30,06,06,11.30
2019,06,30,06,07,11.30
2019,06,30,06,08,11.30
2019,06,30,06,09,11.30
2019,06,30,06,10,11.30
2019,06,30,06,11,11.30
2019,06,30,06,12,11.30
2019,06,30,06,13,11.30
2019,06,30,06,14,11.30
2019,06,30,06,15,11.30
2019,06,30,06,16,11.30
2019,06,30,06,17,11.30
2019,06,30,06,18,11.30
2019,06,30,06,19,11.30
2019,06,30,06,20,11.30
2019,06,30,06,21,11.30
2019,06,30,06,22,11.30
2019,06,30,06,23,11.30
2019,06,30,06,24,11.30
2019,06,30,06,25,11.30
2019,06,30,06,26,11.30
2019,06,30,06,27,11.40
2019,06,30,06,28,11.40
2019,06,30,06,29,11.50
2019,06,30,06,30,11.50
2019,06,30,06,31,11.60
2019,06,30,06,32,11.70
2019,06,30,06,33,11.70
2019,06,30,06,34,11.80
2019,06,30,06,35,11.90
2019,06,30,06,36,12.00
2019,06,30,06,37,12.10
2019,06,30,06,38,12.20
2019,06,30,06,39,12.30
2019,06,30,06,40,12.40
2019,06,30,06,41,12.50
2019,06,30,06,42,12.60
2019,06,30,06,43,12.70
2019,06,30,06,44,12.80
2019,06,30,06,45,12.90
2019,06,30,06,46,13.00
2019,06,30,06,47,13.10
2019,06,30,06,48,13.20
2019,06,30,06,49,13.30
2019,06,30,06,50,13.40
2019,06,30,06,51,13.50
2019,06,30,06,52,13.60
2019,06,30,06,53,13.70
2019,06,30,06,54,13.80
2019,06,30,06,55,13.90
2019,06,30,06,56,14.00
2019,06,30,06,57,14.10
2019,06,30,06,58,14.20
2019,06,30,06,59,14.40
2019,06,30,07,00,14.50
2019,06,30,07,01,14.60
2019,06,30,07,02,14.70
2019,06,30,07,03,14.80
2019,06,30,07,04,14.90
2019,06,30,07,05,15.10
2019,06,30,07,06,15.20
2019,06,30,07,07,15.30
2019,06,30,07,08,15.50
2019,06,30,07,09,15.60
2019,06,30,07,10,15.70
2019,06,30,07,11,15.80
2019,06,30,07,12,15.90
2019,06,30,07,13,16.00
2019,06,30,07,14,16.10
2019,06,30,07,15,16.30
2019,06,30,07,16,16.30
2019,06,30,07,17,16.40
2019,06,30,07,18,16.50
2019,06,30,07,19,16.70
2019,06,30,07,20,16.80
2019,06,30,07,21,16.80
2019,06,30,07,22,16.90
2019,06,30,07,23,17.00
2019,06,30,07,24,17.10
2019,06,30,07,25,17.20
2019,06,30,07,26,17.30
2019,06,30,07,27,17.40
2019,06,30,07,28,17.50
2019,06,30,07,29,17.60
2019,06,30,07,30,17.60
2019,06,30,07,31,17.70
2019,06,30,07,32,17.80
2019,06,30,07,33,17.90
2019,06,30,07,34,18.00
2019,06,30,07,35,18.10
2019,06,30,07,36,18.20
2019,06,30,07,37,18.20
2019,06,30,07,38,18.30
2019,06,30,07,39,18.30
2019,06,30,07,40,18.40
2019,06,30,07,41,18.40
2019,06,30,07,42,18.40
2019,06,30,07,43,18.40
2019,06,30,07,44,18.40
2019,06,30,07,45,18.40
2019,06,30,07,46,18.40
2019,06,30,07,47,18.40
2019,06,30,07,48,18.30
2019,06,30,07,49,18.30
2019,06,30,07,50,18.30
2019,06,30,07,51,18.20
2019,06,30,07,52,18.20
2019,06,30,07,53,18.20
2019,06,30,07,54,18.20
2019,06,30,07,55,18.20
2019,06,30,07,56,18.20
2019,06,30,07,57,18.20
2019,06,30,07,58,18.20
2019,06,30,07,59,18.10
2019,06,30,08,00,18.10
2019,06,30,08,01,18.00
2019,06,30,08,02,18.00
2019,06,30,08,03,18.00
2019,06,30,08,04,17.90
2019,06,30,08,05,17.90
2019,06,30,08,06,17.90
2019,06,30,08,07,17.90
2019,06,30,08,08,17.90
2019,06,30,08,09,17.80
2019,06,30,08,10,17.80
2019,06,30,08,11,17.90
2019,06,30,08,12,17.90
2019,06,30,08,13,17.90
2019,06,30,08,14,17.90
2019,06,30,08,15,17.90
2019,06,30,08,16,17.90
2019,06,30,08,17,17.90
2019,06,30,08,18,17.90
2019,06,30,08,19,17.90
2019,06,30,08,20,17.90
2019,06,30,08,21,18.00
2019,06,30,08,22,18.00
2019,06,30,08,23,18.10
2019,06,30,08,24,18.10
2019,06,30,08,25,18.20
2019,06,30,08,26,18.30
2019,06,30,08,27,18.40
2019,06,30,08,28,18.50
2019,06,30,08,29,18.60
2019,06,30,08,30,18.70
2019,06,30,08,31,18.80
2019,06,30,08,32,18.80
2019,06,30,08,33,18.90
2019,06,30,08,34,19.00
2019,06,30,08,35,19.10
2019,06,30,08,36,19.10
2019,06,30,08,37,19.20
2019,06,30,08,38,19.20
2019,06,30,08,39,19.20
2019,06,30,08,40,19.20
2019,06,30,08,41,19.20
2019,06,30,08,42,19.20
2019,06,30,08,43,19.20
2019,06,30,08,44,19.20
2019,06,30,08,45,19.10
2019,06,30,08,46,19.10
2019,06,30,08,47,19.10
2019,06,30,08,48,19.00
2019,06,30,08,49,19.00
2019,06,30,08,50,18.90
2019,06,30,08,51,18.80
2019,06,30,08,52,18.70
2019,06,30,08,53,18.70
2019,06,30,08,54,18.60
2019,06,30,08,55,18.60
2019,06,30,08,56,18.60
2019,06,30,08,57,18.50
2019,06,30,08,58,18.50
2019,06,30,08,59,18.50
2019,06,30,09,00,18.50
2019,06,30,09,01,18.50
2019,06,30,09,02,18.50
2019,06,30,09,03,18.50
2019,06,30,09,04,18.50
2019,06,30,09,05,18.60
2019,06,30,09,06,18.60
2019,06,30,09,07,18.60
2019,06,30,09,08,18.60
2019,06,30,09,09,18.60
2019,06,30,09,10,18.70
2019,06,30,09,11,18.70
2019,06,30,09,12,18.80
2019,06,30,09,13,18.80
2019,06,30,09,14,18.90
2019,06,30,09,15,18.90
2019,06,30,09,16,18.90
2019,06,30,09,17,18.90
2019,06,30,09,18,18.80
2019,06,30,09,19,18.90
2019,06,30,09,20,18.80
2019,06,30,09,21,18.80
2019,06,30,09,22,18.80
2019,06,30,09,23,18.90
2019,06,30,09,24,18.90
2019,06,30,09,25,19.00
2019,06,30,09,26,19.00
2019,06,30,09,27,19.10
2019,06,30,09,28,19.10
2019,06,30,09,29,19.10
2019,06,30,09,30,19.20
2019,06,30,09,31,19.30
2019,06,30,09,32,19.30
2019,06,30,09,33,19.40
2019,06,30,09,34,19.50
2019,06,30,09,35,19.70
2019,06,30,09,36,19.80
2019,06,30,09,37,19.80
2019,06,30,09,38,19.90
2019,06,30,09,39,19.90
2019,06,30,09,40,20.00
2019,06,30,09,41,20.00
2019,06,30,09,42,20.10
2019,06,30,09,43,20.10
2019,06,30,09,44,20.10
2019,06,30,09,45,20.20
2019,06,30,09,46,20.20
2019,06,30,09,47,20.20
2019,06,30,09,48,20.20
2019,06,30,09,49,20.30
2019,06,30,09,50,20.30
2019,06,30,09,51,20.30
2019,06,30,09,52,20.30
2019,06,30,09,53,20.30
2019,06,30,09,54,20.30
2019,06,30,09,55,20.40
2019,06,30,09,56,20.40
2019,06,30,09,57,20.50
2019,06,30,09,58,20.50
2019,06,30,09,59,20.50
2019,06,30,10,00,20.60
2019,06,30,10,01,20.70
2019,06,30,10,02,20.70
2019,06,30,10,03,20.80
2019,06,30,10,04,20.80
2019,06,30,10,05,20.90
2019,06,30,10,06,21.00
2019,06,30,10,07,21.10
2019,06,30,10,08,21.10
2019,06,30,10,09,21.20
2019,06,30,10,10,21.20
2019,06,30,10,11,21.10
2019,06,30,10,12,21.10
2019,06,30,10,13,21.10
2019,06,30,10,14,21.10
2019,06,30,10,15,21.00
2019,06,30,10,16,21.00
2019,06,30,10,17,21.00
2019,06,30,10,18,21.10
2019,06,30,10,19,21.10
2019,06,30,10,20,21.10
2019,06,30,10,21,21.10
2019,06,30,10,22,21.20
2019,06,30,10,23,21.20
2019,06,30,10,24,21.30
2019,06,30,10,25,21.30
2019,06,30,10,26,21.30
2019,06,30,10,27,21.30
2019,06,30,10,28,21.30
2019,06,30,10,29,21.30
2019,06,30,10,30,21.30
2019,06,30,10,31,21.20
2019,06,30,10,32,21.20
2019,06,30,10,33,21.10
2019,06,30,10,34,21.10
2019,06,30,10,35,21.10
2019,06,30,10,36,21.10
2019,06,30,10,37,21.10
2019,06,30,10,38,21.10
2019,06,30,10,39,21.10
2019,06,30,10,40,21.10
2019,06,30,10,41,21.10
2019,06,30,10,42,21.00
2019,06,30,10,43,21.00
2019,06,30,10,44,21.00
2019,06,30,10,45,21.00
2019,06,30,10,46,21.00
2019,06,30,10,47,21.00
2019,06,30,10,48,21.10
2019,06,30,10,49,21.10
2019,06,30,10,50,21.10
2019,06,30,10,51,21.20
2019,06,30,10,52,21.30
2019,06,30,10,53,21.40
2019,06,30,10,54,21.40
2019,06,30,10,55,21.50
2019,06,30,10,56,21.50
2019,06,30,10,57,21.60
2019,06,30,10,58,21.60
2019,06,30,10,59,21.60
2019,06,30,11,00,21.70
2019,06,30,11,01,21.70
2019,06,30,11,02,21.80
2019,06,30,11,03,21.80
2019,06,30,11,04,21.80
2019,06,30,11,05,21.80
2019,06,30,11,06,21.90
2019,06,30,11,07,21.90
2019,06,30,11,08,21.90
2019,06,30,11,09,21.90
2019,06,30,11,10,21.90
2019,06,30,11,11,21.90
2019,06,30,11,12,21.90
2019,06,30,11,13,22.00
2019,06,30,11,14,22.00
2019,06,30,11,15,22.10
2019,06,30,11,16,22.10
2019,06,30,11,17,22.10
2019,06,30,11,18,22.10
2019,06,30,11,19,22.10
2019,06,30,11,20,22.10
2019,06,30,11,21,22.10
2019,06,30,11,22,22.00
2019,06,30,11,23,22.00
2019,06,30,11,24,22.00
2019,06,30,11,25,22.10
2019,06,30,11,26,22.10
2019,06,30,11,27,22.10
2019,06,30,11,28,22.10
2019,06,30,11,29,22.20
2019,06,30,11,30,22.20
2019,06,30,11,31,22.20
2019,06,30,11,32,22.20
2019,06,30,11,33,22.20
2019,06,30,11,34,22.30
2019,06,30,11,35,22.30
2019,06,30,11,36,22.40
2019,06,30,11,37,22.40
2019,06,30,11,38,22.40
2019,06,30,11,39,22.50
2019,06,30,11,40,22.50
2019,06,30,11,41,22.60
2019,06,30,11,42,22.60
2019,06,30,11,43,22.70
2019,06,30,11,44,22.70
2019,06,30,11,45,22.70
2019,06,30,11,46,22.70
2019,06,30,11,47,22.70
2019,06,30,11,48,22.70
2019,06,30,11,49,22.70
2019,06,30,11,50,22.70
2019,06,30,11,51,22.60
2019,06,30,11,52,22.70
2019,06,30,11,53,22.60
2019,06,30,11,54,22.60
2019,06,30,11,55,22.60
2019,06,30,11,56,22.60
2019,06,30,11,57,22.60
2019,06,30,11,58,22.60
2019,06,30,11,59,22.60
2019,06,30,12,00,22.60
2019,06,30,12,01,22.60
2019,06,30,12,02,22.70
2019,06,30,12,03,22.70
2019,06,30,12,04,22.80
2019,06,30,12,05,22.80
2019,06,30,12,06,22.80
2019,06,30,12,07,22.80
2019,06,30,12,08,22.80
2019,06,30,12,09,22.80
2019,06,30,12,10,22.80
2019,06,30,12,11,22.80
2019,06,30,12,12,22.80
2019,06,30,12,13,22.80
2019,06,30,12,14,22.80
2019,06,30,12,15,22.80
2019,06,30,12,16,22.80
2019,06,30,12,17,22.80
2019,06,30,12,18,22.80
2019,06,30,12,19,22.70
2019,06,30,12,20,22.70
2019,06,30,12,21,22.70
2019,06,30,12,22,22.70
2019,06,30,12,23,22.70
2019,06,30,12,24,22.70
2019,06,30,12,25,22.80
2019,06,30,12,26,22.80
2019,06,30,12,27,22.80
2019,06,30,12,28,22.80
2019,06,30,12,29,22.80
2019,06,30,12,30,22.80
2019,06,30,12,31,22.80
2019,06,30,12,32,22.80
2019,06,30,12,33,22.80
2019,06,30,12,34,22.90
2019,06,30,12,35,22.90
2019,06,30,12,36,22.90
2019,06,30,12,37,22.90
2019,06,30,12,38,23.00
2019,06,30,12,39,23.00
2019,06,30,12,40,23.10
2019,06,30,12,41,23.10
2019,06,30,12,42,23.10
2019,06,30,12,43,23.10
2019,06,30,12,44,23.10
2019,06,30,12,45,23.10
2019,06,30,12,46,23.10
2019,06,30,12,47,23.10
2019,06,30,12,48,23.20
2019,06,30,12,49,23.20
2019,06,30,12,50,23.20
2019,06,30,12,51,23.30
2019,06,30,12,52,23.30
2019,06,30,12,53,23.30
2019,06,30,12,54,23.30
2019,06,30,12,55,23.30
2019,06,30,12,56,23.30
2019,06,30,12,57,23.40
2019,06,30,12,58,23.40
2019,06,30,12,59,23.40
2019,06,30,13,00,23.40
2019,06,30,13,01,23.50
2019,06,30,13,02,23.50
2019,06,30,13,03,23.60
2019,06,30,13,04,23.60
2019,06,30,13,05,23.60
2019,06,30,13,06,23.60
2019,06,30,13,07,23.70
2019,06,30,13,08,23.70
2019,06,30,13,09,23.70
2019,06,30,13,10,23.70
2019,06,30,13,11,23.70
2019,06,30,13,12,23.70
2019,06,30,13,13,23.70
2019,06,30,13,14,23.70
2019,06,30,13,15,23.70
2019,06,30,13,16,23.80
2019,06,30,13,17,23.80
2019,06,30,13,18,23.90
2019,06,30,13,19,24.00
2019,06,30,13,20,24.10
2019,06,30,13,21,24.10
2019,06,30,13,22,24.10
2019,06,30,13,23,24.20
2019,06,30,13,24,24.20
2019,06,30,13,25,24.20
2019,06,30,13,26,24.20
2019,06,30,13,27,24.20
2019,06,30,13,28,24.20
2019,06,30,13,29,24.20
2019,06,30,13,30,24.20
2019,06,30,13,31,24.20
2019,06,30,13,32,24.20
2019,06,30,13,33,24.10
2019,06,30,13,34,24.10
2019,06,30,13,35,24.00
2019,06,30,13,36,23.90
2019,06,30,13,37,23.90
2019,06,30,13,38,23.90
2019,06,30,13,39,23.80
2019,06,30,13,40,23.80
2019,06,30,13,41,23.80
2019,06,30,13,42,23.80
2019,06,30,13,43,23.80
2019,06,30,13,44,23.80
2019,06,30,13,45,23.80
2019,06,30,13,46,23.80
2019,06,30,13,47,23.80
2019,06,30,13,48,23.90
2019,06,30,13,49,23.90
2019,06,30,13,50,23.90
2019,06,30,13,51,24.00
2019,06,30,13,52,24.00
2019,06,30,13,53,23.90
2019,06,30,13,54,23.90
2019,06,30,13,55,23.90
2019,06,30,13,56,23.90
2019,06,30,13,57,23.90
2019,06,30,13,58,23.90
2019,06,30,13,59,23.90
2019,06,30,14,00,23.80
2019,06,30,14,01,23.80
2019,06,30,14,02,23.80
2019,06,30,14,03,23.80
2019,06,30,14,04,23.80
2019,06,30,14,05,23.80
2019,06,30,14,06,23.80
2019,06,30,14,07,23.80
2019,06,30,14,08,23.90
2019,06,30,14,09,23.90
2019,06,30,14,10,23.90
2019,06,30,14,11,23.90
2019,06,30,14,12,24.00
2019,06,30,14,13,24.00
2019,06,30,14,14,24.10
2019,06,30,14,15,24.10
2019,06,30,14,16,24.20
2019,06,30,14,17,24.20
2019,06,30,14,18,24.30
2019,06,30,14,19,24.30
2019,06,30,14,20,24.30
2019,06,30,14,21,24.30
2019,06,30,14,22,24.30
2019,06,30,14,23,24.30
2019,06,30,14,24,24.30
2019,06,30,14,25,24.30
2019,06,30,14,26,24.30
2019,06,30,14,27,24.30
2019,06,30,14,28,24.30
2019,06,30,14,29,24.40
2019,06,30,14,30,24.40
2019,06,30,14,31,24.40
2019,06,30,14,32,24.50
2019,06,30,14,33,24.50
2019,06,30,14,34,24.50
2019,06,30,14,35,24.40
2019,06,30,14,36,24.40
2019,06,30,14,37,24.40
2019,06,30,14,38,24.40
2019,06,30,14,39,24.40
2019,06,30,14,40,24.40
2019,06,30,14,41,24.40
2019,06,30,14,42,24.40
2019,06,30,14,43,24.30
2019,06,30,14,44,24.30
2019,06,30,14,45,24.20
2019,06,30,14,46,24.10
2019,06,30,14,47,24.10
2019,06,30,14,48,24.00
2019,06,30,14,49,24.00
2019,06,30,14,50,23.90
2019,06,30,14,51,24.00
2019,06,30,14,52,24.00
2019,06,30,14,53,24.10
2019,06,30,14,54,24.10
2019,06,30,14,55,24.20
2019,06,30,14,56,24.20
2019,06,30,14,57,24.30
2019,06,30,14,58,24.40
2019,06,30,14,59,24.40
2019,06,30,15,00,24.50
2019,06,30,15,01,24.50
2019,06,30,15,02,24.50
2019,06,30,15,03,24.50
2019,06,30,15,04,24.50
2019,06,30,15,05,24.60
2019,06,30,15,06,24.60
2019,06,30,15,07,24.60
2019,06,30,15,08,24.70
2019,06,30,15,09,24.80
2019,06,30,15,10,24.80
2019,06,30,15,11,24.80
2019,06,30,15,12,24.80
2019,06,30,15,13,24.80
2019,06,30,15,14,24.80
2019,06,30,15,15,24.80
2019,06,30,15,16,24.80
2019,06,30,15,17,24.80
2019,06,30,15,18,24.80
2019,06,30,15,19,24.80
2019,06,30,15,20,24.80
2019,06,30,15,21,24.80
2019,06,30,15,22,24.80
2019,06,30,15,23,24.90
2019,06,30,15,24,24.90
2019,06,30,15,25,24.90
2019,06,30,15,26,24.90
2019,06,30,15,27,24.90
2019,06,30,15,28,24.80
2019,06,30,15,29,24.80
2019,06,30,15,30,24.80
2019,06,30,15,31,24.80
2019,06,30,15,32,24.80
2019,06,30,15,33,24.80
2019,06,30,15,34,24.80
2019,06,30,15,35,24.80
2019,06,30,15,36,24.80
2019,06,30,15,37,24.90
2019,06,30,15,38,24.90
2019,06,30,15,39,25.00
2019,06,30,15,40,25.10
2019,06,30,15,41,25.10
2019,06,30,15,42,25.20
2019,06,30,15,43,25.20
2019,06,30,15,44,25.20
2019,06,30,15,45,25.10
2019,06,30,15,46,25.10
2019,06,30,15,47,25.10
2019,06,30,15,48,25.10
2019,06,30,15,49,25.00
2019,06,30,15,50,25.00
2019,06,30,15,51,25.00
2019,06,30,15,52,25.00
2019,06,30,15,53,24.90
2019,06,30,15,54,24.90
2019,06,30,15,55,24.90
2019,06,30,15,56,24.90
2019,06,30,15,57,24.80
2019,06,30,15,58,24.80
2019,06,30,15,59,24.80
2019,06,30,16,00,24.80
2019,06,30,16,01,24.80
2019,06,30,16,02,24.80
2019,06,30,16,03,24.80
2019,06,30,16,04,24.80
2019,06,30,16,05,24.80
2019,06,30,16,06,24.80
2019,06,30,16,07,24.80
2019,06,30,16,08,24.80
2019,06,30,16,09,24.90
2019,06,30,16,10,24.90
2019,06,30,16,11,24.90
2019,06,30,16,12,24.90
2019,06,30,16,13,24.80
2019,06,30,16,14,24.70
2019,06,30,16,15,24.70
2019,06,30,16,16,24.70
2019,06,30,16,17,24.60
2019,06,30,16,18,24.60
2019,06,30,16,19,24.60
2019,06,30,16,20,24.50
2019,06,30,16,21,24.50
2019,06,30,16,22,24.40
2019,06,30,16,23,24.40
2019,06,30,16,24,24.40
2019,06,30,16,25,24.50
2019,06,30,16,26,24.50
2019,06,30,16,27,24.50
2019,06,30,16,28,24.50
2019,06,30,16,29,24.50
2019,06,30,16,30,24.50
2019,06,30,16,31,24.50
2019,06,30,16,32,24.40
2019,06,30,16,33,24.40
2019,06,30,16,34,24.40
2019,06,30,16,35,24.40
2019,06,30,16,36,24.40
2019,06,30,16,37,24.40
2019,06,30,16,38,24.40
2019,06,30,16,39,24.40
2019,06,30,16,40,24.40
2019,06,30,16,41,24.40
2019,06,30,16,42,24.40
2019,06,30,16,43,24.50
2019,06,30,16,44,24.50
2019,06,30,16,45,24.50
2019,06,30,16,46,24.60
2019,06,30,16,47,24.70
2019,06,30,16,48,24.70
2019,06,30,16,49,24.80
2019,06,30,16,50,24.90
2019,06,30,16,51,24.90
2019,06,30,16,52,25.00
2019,06,30,16,53,25.00
2019,06,30,16,54,25.10
2019,06,30,16,55,25.10
2019,06,30,16,56,25.10
2019,06,30,16,57,25.10
2019,06,30,16,58,25.10
2019,06,30,16,59,25.00
2019,06,30,17,00,25.10
2019,06,30,17,01,25.10
2019,06,30,17,02,25.10
2019,06,30,17,03,25.20
2019,06,30,17,04,25.30
2019,06,30,17,05,25.30
2019,06,30,17,06,25.40
2019,06,30,17,07,25.40
2019,06,30,17,08,25.50
2019,06,30,17,09,25.50
2019,06,30,17,10,25.60
2019,06,30,17,11,25.60
2019,06,30,17,12,25.70
2019,06,30,17,13,25.70
2019,06,30,17,14,25.80
2019,06,30,17,15,25.80
2019,06,30,17,16,25.80
2019,06,30,17,17,25.80
2019,06,30,17,18,25.90
2019,06,30,17,19,25.90